Weather reports worldwide

Advertisment
Leucate/Semaphore, France (7666): temperature & dewpoint: 08.07.2020 10:00:00 - 14.07.2020 10:00:00 (CEST)Leucate/Semaphore, France (7666): wind speed & gusts: 08.07.2020 10:00:00 - 14.07.2020 10:00:00 (CEST)Leucate/Semaphore, France (7666): wind direction: 08.07.2020 10:00:00 - 14.07.2020 10:00:00 (CEST)Leucate/Semaphore, France (7666): reduced air pressure: 08.07.2020 10:00:00 - 14.07.2020 10:00:00 (CEST)Leucate/Semaphore, France (7666): visibility: 08.07.2020 10:00:00 - 14.07.2020 10:00:00 (CEST)Leucate/Semaphore, France (7666): precipitation: 08.07.2020 10:00:00 - 14.07.2020 10:00:00 (CEST)
Date & Time tt [°C] td [°C] ff [km/h] ff [kn] fx [km/h] fx [kn] dd ppp [hPa] vv [km] rr [mm]
14.07.2020 10:00:00 24,2 8,6 26 14 50 27 NW 1016,9 - 0,0
14.07.2020 09:00:00 23,1 8,8 23 12 43 23 NW 1017,1 - 0,0
14.07.2020 08:00:00 21,9 8,7 26 14 52 28 WNW 1016,9 - 0,0
14.07.2020 07:00:00 21,8 9,0 29 16 59 32 NW 1016,6 - 0,0
14.07.2020 06:00:00 21,8 9,7 29 16 61 33 NW 1016,4 - 0,0
14.07.2020 05:00:00 22,2 9,7 27 15 55 30 NW 1016,3 20 0,0
14.07.2020 04:00:00 22,9 10,0 34 18 66 36 WNW 1016,3 - 0,0
14.07.2020 03:00:00 23,4 10,4 26 14 60 32 NW 1016,4 - 0,0
14.07.2020 02:00:00 24,2 10,8 31 17 59 32 NW 1016,4 - 0,0
14.07.2020 01:00:00 25,1 12,0 35 19 67 36 NW 1016,4 - 0,0
14.07.2020 00:00:00 25,6 11,0 27 14 61 33 NW 1016,6 - 0,0
13.07.2020 23:00:00 26,1 11,4 31 17 60 33 WNW 1016,5 - 0,0
13.07.2020 22:00:00 27,3 6,7 23 12 55 30 NW 1016,3 - 0,0
13.07.2020 21:00:00 28,5 7,1 26 14 52 28 NW 1016,0 - 0,0
13.07.2020 20:00:00 29,9 7,1 28 15 61 33 NW 1015,9 25 0,0
13.07.2020 19:00:00 31,2 8,2 23 13 53 29 NW 1015,8 - 0,0
13.07.2020 18:00:00 31,6 8,6 26 14 56 31 NW 1016,2 - 0,0
13.07.2020 17:00:00 31,9 9,4 24 13 47 25 NW 1016,5 25 0,0
13.07.2020 16:00:00 31,4 7,1 31 17 54 29 NW 1016,6 - 0,0
13.07.2020 15:00:00 30,9 8,6 27 14 48 26 NNW 1017,1 - 0,0
13.07.2020 14:00:00 30,8 9,1 25 14 53 28 NW 1017,9 25 0,0
13.07.2020 13:00:00 29,0 9,7 21 12 49 26 NW 1018,5 - 0,0
13.07.2020 12:00:00 29,7 10,8 21 11 43 23 NNW 1018,7 - 0,0
13.07.2020 11:00:00 27,5 12,7 19 11 37 20 NW 1019,1 30 -
13.07.2020 10:00:00 27,3 14,0 15 8 36 19 NNW 1019,3 - 0,0
13.07.2020 09:00:00 25,2 14,3 19 10 41 22 NW 1019,1 - 0,0
13.07.2020 08:00:00 23,7 14,7 22 12 42 23 NW 1018,7 - 0,0
13.07.2020 07:00:00 23,2 15,3 18 10 37 20 NW 1018,3 - 0,0
13.07.2020 06:00:00 23,2 15,8 16 9 33 18 NW 1017,7 - 0,0
13.07.2020 05:00:00 23,2 16,0 14 8 30 16 NW 1017,7 25 0,0
13.07.2020 04:00:00 23,6 15,6 18 10 32 17 NW 1018,0 - 0,0
13.07.2020 03:00:00 24,0 15,0 15 8 29 16 NW 1018,1 - 0,0
13.07.2020 02:00:00 23,7 14,7 15 8 30 16 NW 1018,3 - 0,0
13.07.2020 01:00:00 23,2 14,5 8 4 21 12 NNW 1018,3 - 0,0
13.07.2020 00:00:00 23,9 13,1 15 8 23 12 NW 1017,9 - 0,0
12.07.2020 23:00:00 23,4 14,9 10 6 13 7 W 1018,1 - 0,0
12.07.2020 22:00:00 24,3 15,2 12 7 28 15 W 1017,4 - 0,0
12.07.2020 21:00:00 24,9 15,8 17 9 31 17 SW 1017,1 - 0,0
12.07.2020 20:00:00 27,1 11,9 9 5 16 9 WSW 1016,4 25 0,0
12.07.2020 19:00:00 26,7 11,6 10 5 29 16 NNW 1015,8 - 0,0
12.07.2020 18:00:00 28,2 9,9 19 10 47 25 NW 1018,0 - 0,0
12.07.2020 17:00:00 28,5 11,1 13 7 30 16 WSW 1019,0 25 0,0
12.07.2020 16:00:00 27,1 11,9 8 4 36 19 W 1018,6 - 0,0
12.07.2020 15:00:00 28,1 10,3 14 7 37 20 NW 1019,0 - 0,0
12.07.2020 14:00:00 24,2 17,2 8 4 15 8 SE 1019,2 30 0,0
12.07.2020 13:00:00 24,1 18,5 10 6 16 9 SSE 1019,2 - 0,0
12.07.2020 12:00:00 23,3 17,5 10 5 16 8 SE 1018,8 - 0,0
12.07.2020 11:00:00 24,7 18,2 4 2 15 8 E 1018,5 30 0,0
12.07.2020 10:00:00 24,2 15,9 8 5 16 9 N 1018,6 - 0,0
12.07.2020 09:00:00 23,8 14,8 11 6 21 11 NNW 1018,5 - 0,0
12.07.2020 08:00:00 22,4 14,3 11 6 22 12 NW 1018,5 25 0,0
12.07.2020 07:00:00 20,3 14,2 12 6 22 12 NNW 1017,8 - 0,0
12.07.2020 06:00:00 20,6 14,0 15 8 22 12 NNW 1017,5 - 0,0
12.07.2020 05:00:00 20,8 15,1 8 4 24 13 N 1017,4 - 0,0
12.07.2020 04:00:00 21,5 14,4 14 8 36 19 NW 1017,6 - 0,0
12.07.2020 03:00:00 22,7 14,0 21 11 36 19 NW 1017,4 - 0,0
12.07.2020 02:00:00 23,4 14,1 17 9 32 17 NW 1017,4 - 0,0
12.07.2020 01:00:00 23,9 14,3 16 9 36 19 NW 1017,7 - 0,0
12.07.2020 00:00:00 24,8 13,4 17 9 42 23 NW 1017,6 - 0,0
11.07.2020 23:00:00 25,3 13,5 22 12 43 23 WNW 1017,5 - 0,0
11.07.2020 22:00:00 25,8 13,3 23 13 44 24 WNW 1017,1 - 0,0
11.07.2020 21:00:00 27,0 13,0 23 12 46 25 WNW 1016,8 - 0,0
11.07.2020 20:00:00 28,3 13,0 27 14 48 26 WNW 1016,5 30 0,0
11.07.2020 19:00:00 29,4 13,2 24 13 53 28 WNW 1016,7 - 0,0
11.07.2020 18:00:00 30,0 13,3 24 13 51 28 NW 1016,5 - 0,0
11.07.2020 17:00:00 29,6 13,4 26 14 55 30 NW 1016,7 - 0,0
11.07.2020 16:00:00 29,4 14,4 24 13 51 28 NW 1017,4 - 0,0
11.07.2020 15:00:00 29,2 14,6 24 13 55 30 NW 1017,8 - 0,0
11.07.2020 14:00:00 28,1 14,7 26 14 51 27 NNW 1018,3 - 0,0
11.07.2020 13:00:00 27,4 14,8 22 12 49 26 NW 1018,5 - 0,0
11.07.2020 12:00:00 27,0 14,7 21 11 45 25 NW 1018,7 - 0,0
11.07.2020 11:00:00 25,3 15,0 24 13 52 28 NW 1018,5 30 0,0
11.07.2020 10:00:00 23,8 15,6 24 13 44 24 NW 1018,7 - 0,0
11.07.2020 09:00:00 23,1 16,2 22 12 50 27 NW 1018,3 - 0,0
11.07.2020 08:00:00 21,9 16,0 25 14 48 26 NW 1018,1 25 0,0
11.07.2020 07:00:00 20,9 16,3 26 14 50 27 NW 1017,7 - 0,0
11.07.2020 06:00:00 20,9 16,1 22 12 49 26 NW 1017,4 - 0,0
11.07.2020 05:00:00 21,2 16,2 28 15 50 27 NW 1017,0 20 0,0
11.07.2020 04:00:00 21,5 16,5 24 13 51 28 NW 1017,0 - 0,0
11.07.2020 03:00:00 22,2 16,2 23 13 50 27 NW 1017,2 - 0,0
11.07.2020 02:00:00 22,8 16,1 23 13 58 31 NW 1017,0 - 0,0
11.07.2020 01:00:00 23,3 16,1 28 15 61 33 NW 1016,7 - 0,0
11.07.2020 00:00:00 23,8 16,1 26 14 57 31 NW 1016,2 - 0,0
10.07.2020 23:00:00 24,0 16,5 26 14 52 28 NW 1015,8 - 0,0
10.07.2020 22:00:00 24,9 16,1 21 11 49 27 NW 1015,1 - 0,0
10.07.2020 21:00:00 26,1 16,4 26 14 59 32 NW 1014,9 - 0,0
10.07.2020 20:00:00 28,0 16,0 26 14 61 33 NW 1014,5 - 0,0
10.07.2020 19:00:00 30,8 16,0 20 11 36 19 WNW 1014,2 - 0,0
10.07.2020 18:00:00 25,8 20,4 23 13 52 28 S 1014,2 - 0,0
10.07.2020 17:00:00 24,0 20,1 26 14 35 19 S 1014,2 12 0,0
10.07.2020 16:00:00 25,3 19,9 24 13 32 17 S 1014,5 - 0,0
10.07.2020 15:00:00 31,4 16,9 16 9 35 19 NW 1014,5 - 0,0
10.07.2020 14:00:00 29,5 16,7 15 8 38 20 NNW 1014,6 - 0,0
10.07.2020 13:00:00 31,0 17,0 19 10 32 18 NNW 1014,7 - 0,0
10.07.2020 12:00:00 28,4 17,3 18 10 33 18 NNW 1015,1 - 0,0
10.07.2020 11:00:00 26,0 17,6 3 2 29 16 N 1015,8 18 0,0
10.07.2020 10:00:00 26,6 17,1 18 10 31 17 WNW 1016,0 - 0,0
10.07.2020 09:00:00 25,6 17,0 16 9 26 14 WNW 1015,6 - 0,0
10.07.2020 08:00:00 25,5 17,4 10 6 34 18 NW 1015,2 18 0,0
10.07.2020 07:00:00 24,3 17,1 19 11 36 19 WNW 1014,9 - 0,0
10.07.2020 06:00:00 24,5 17,5 19 11 37 20 WNW 1014,9 - 0,0
10.07.2020 05:00:00 21,6 18,4 3 2 8 5 WSW 1014,6 - 0,0
10.07.2020 04:00:00 21,6 19,3 8 4 14 7 S 1014,8 - 0,0
10.07.2020 03:00:00 21,3 18,1 11 6 17 9 N 1014,8 - 0,0
10.07.2020 02:00:00 22,5 18,7 12 6 16 9 N 1014,8 - 0,0
10.07.2020 01:00:00 23,9 17,6 10 5 14 8 WSW 1014,8 - 0,0
10.07.2020 00:00:00 24,4 17,4 8 4 20 11 SW 1014,9 - 0,0
09.07.2020 23:00:00 24,3 18,5 17 9 22 12 SW 1015,3 - 0,0
09.07.2020 22:00:00 24,0 19,7 14 8 25 14 SW 1015,2 - 0,0
09.07.2020 21:00:00 23,6 20,1 18 10 26 14 S 1014,5 - 0,0
09.07.2020 20:00:00 25,6 17,0 17 9 30 16 SSW 1015,0 - 0,0
09.07.2020 19:00:00 23,7 19,0 21 11 29 16 S 1014,7 - 0,0
09.07.2020 18:00:00 23,2 20,2 15 8 22 12 S 1015,5 - 0,0
09.07.2020 17:00:00 23,6 19,5 13 7 17 9 S 1016,3 18 0,0
09.07.2020 16:00:00 23,7 19,2 15 8 18 10 SSE 1016,3 - 0,0
09.07.2020 15:00:00 24,0 19,1 4 2 13 7 E 1016,7 - 0,0
09.07.2020 14:00:00 24,2 18,8 8 4 13 7 ENE 1016,9 20 0,0
09.07.2020 13:00:00 23,8 16,1 6 3 12 6 ENE 1017,4 - 0,0
09.07.2020 12:00:00 23,2 15,8 7 4 14 8 NNE 1017,3 - 0,0
09.07.2020 11:00:00 22,8 15,9 7 4 16 9 NNE 1017,6 - 0,0
09.07.2020 10:00:00 23,2 13,4 13 7 18 10 N 1017,2 - 0,0
09.07.2020 09:00:00 23,1 12,1 10 5 14 7 NNE 1017,2 - 0,0
09.07.2020 08:00:00 21,9 14,0 8 5 17 9 WSW 1017,0 20 0,0
09.07.2020 07:00:00 20,1 12,1 13 7 17 9 NNW 1016,1 - 0,0
09.07.2020 06:00:00 20,1 11,6 8 4 20 11 NNW 1015,6 - 0,0
09.07.2020 05:00:00 20,4 12,1 15 8 26 14 N 1015,4 - 0,0
09.07.2020 04:00:00 19,0 13,6 19 10 29 15 N 1015,6 - 0,0
09.07.2020 03:00:00 19,2 16,6 18 10 27 15 N 1015,8 - 0,0
09.07.2020 02:00:00 21,3 15,4 16 9 23 12 N 1015,7 - 0,0
09.07.2020 01:00:00 23,2 15,5 15 8 21 11 WSW 1015,9 - 0,0
09.07.2020 00:00:00 24,4 13,0 17 9 24 13 WSW 1015,8 - 0,0
08.07.2020 23:00:00 23,6 16,4 16 9 19 11 WSW 1015,9 - 0,0
08.07.2020 22:00:00 24,9 12,5 13 7 22 12 S 1015,6 - 0,0
08.07.2020 21:00:00 25,2 12,8 18 10 29 16 SSW 1015,3 - 0,0
08.07.2020 20:00:00 25,0 11,5 18 10 31 17 S 1014,9 25 0,0
08.07.2020 19:00:00 23,9 15,1 19 10 30 16 S 1015,2 - 0,0
08.07.2020 18:00:00 24,2 14,6 21 11 26 14 S 1015,6 - 0,0
08.07.2020 17:00:00 23,9 16,2 17 9 24 13 S 1016,2 25 0,0
08.07.2020 16:00:00 24,0 16,3 16 9 21 12 S 1016,6 - 0,0
08.07.2020 15:00:00 23,5 16,0 12 7 21 11 SSE 1017,0 - 0,0
08.07.2020 14:00:00 23,3 15,9 14 8 20 11 SSE 1017,2 25 0,0
08.07.2020 13:00:00 22,7 16,0 13 7 17 9 SSE 1017,5 - 0,0
08.07.2020 12:00:00 23,0 12,6 9 5 15 8 SSE 1017,3 - 0,0
08.07.2020 11:00:00 22,1 11,5 9 5 17 9 SE 1017,2 - 0,0
08.07.2020 10:00:00 21,2 14,6 9 5 11 6 S 1017,0 - 0,0

tt = temperature
td = dewpoint
ff = wind speed
fx = gusts
dd = wind direction
ppp = reduced air pressure
vv = visibility
rr = precipitation

Next stations